Moron de la Frontera, Spain

4:30 AM CET on March 25, 2017 (GMT +0100)
Moron Air Base

Weather History for LEMO - July, 2013

Change the Weather History Date:

Monday, July 22, 2013

  Actual Average Record
Temperature  
Mean Temperature 80 °F -  
Max Temperature 95 °F 92 °F 105 °F (1996)
Min Temperature 64 °F 65 °F 59 °F (2007)
Cooling Degree Days 14    
Growing Degree Days 30 (Base 50)    
Moisture  
Dew Point 65 °F    
Average Humidity 64    
Maximum Humidity 83    
Minimum Humidity 39    
Precipitation  
Precipitation 0.00 in - - ()
Sea Level Pressure  
Sea Level Pressure 29.98 in    
Wind  
Wind Speed 2 mph ()    
Max Wind Speed 8 mph    
Max Gust Speed -    
Visibility 6.0 miles    
Events      
Averages and records for this station are not official NWS values.
T = Trace of Precipitation, MM = Missing Value Source: Averaged Metar Reports

Daily Weather History Graph

Daily Weather History Graph

Search for Another Location

Airport or City:

Trip Planner

Search our weather history database for the weather conditions in past years. The results will help you decide how hot, cold, wet, or windy it might be!

Date:

Astronomy

Jul. 22, 2013 Rise Set
Actual Time 7:19 AM CEST 9:38 PM CEST
Civil Twilight 6:49 AM CEST 10:07 PM CEST
Nautical Twilight 6:13 AM CEST 10:43 PM CEST
Astronomical Twilight 5:33 AM CEST 11:23 PM CEST
Moon 9:15 PM CEST (7/22) 6:57 AM CEST (7/22)
Length of Visible Light 15h 17m
Length of Day
14h 18m
Full, 100% of the Moon is Illuminated
Jul 22
Full
Jul 22
Full
Jul 29
Last Quarter
Aug 6
New
Aug 14
First Quarter

Hourly Weather History & Observations

Time (CEST) Temp. Heat Index Dew Point Humidity Pressure Visibility Wind Dir Wind Speed Gust Speed Precip Events Conditions
12:00 AM 73.4 °F - 64.4 °F 73% 30.01 in - SW 3.5 mph - N/A   Clear
1:00 AM 71.6 °F - 62.6 °F 73% 30.01 in - SSW 3.5 mph - N/A   Clear
2:00 AM 69.8 °F - 62.6 °F 78% 30.01 in - Calm Calm - N/A   Clear
3:00 AM 68.0 °F - 62.6 °F 83% 30.01 in - Calm Calm - N/A   Clear
4:00 AM 68.0 °F - 62.6 °F 83% 30.01 in - Calm Calm - N/A   Clear
5:00 AM 66.2 °F - 60.8 °F 83% 30.01 in - Calm Calm - N/A   Clear
6:00 AM 66.2 °F - 60.8 °F 83% 29.98 in - Calm Calm - N/A   Clear
7:00 AM 64.4 °F - 59.0 °F 83% 29.98 in - Calm Calm - N/A   Clear
8:00 AM 66.2 °F - 60.8 °F 83% 30.01 in - East 2.3 mph - N/A   Clear
9:00 AM 71.6 °F - 64.4 °F 78% 30.01 in 5.6 mi Calm Calm - N/A   Unknown
10:00 AM 77.0 °F - 64.4 °F 65% 30.01 in 5.6 mi Calm Calm - N/A   Unknown
11:00 AM 80.6 °F 82.7 °F 66.2 °F 61% 30.01 in - Calm Calm - N/A   Clear
12:00 PM 84.2 °F 85.6 °F 64.4 °F 51% 30.01 in - Calm Calm - N/A   Clear
1:00 PM 87.8 °F 89.4 °F 64.4 °F 46% 30.01 in - Calm Calm - N/A   Clear
2:00 PM 89.6 °F 91.1 °F 64.4 °F 43% 29.98 in - Calm Calm - N/A   Clear
3:00 PM 91.4 °F 94.0 °F 66.2 °F 43% 29.98 in - Variable 2.3 mph - N/A   Clear
4:00 PM 93.2 °F 96.2 °F 66.2 °F 41% 29.95 in - Calm Calm - N/A   Clear
5:00 PM 95.0 °F 98.5 °F 66.2 °F 39% 29.95 in 6.2 mi Calm Calm - N/A   Partly Cloudy
6:00 PM 95.0 °F 99.5 °F 68.0 °F 41% 29.92 in 6.2 mi West 6.9 mph - N/A   Partly Cloudy
7:00 PM 91.4 °F 96.8 °F 69.8 °F 49% 29.92 in 6.2 mi West 8.1 mph - N/A   Partly Cloudy
8:00 PM 89.6 °F 94.7 °F 69.8 °F 52% 29.92 in 6.2 mi West 8.1 mph - N/A   Partly Cloudy
9:00 PM 86.0 °F 90.4 °F 69.8 °F 58% 29.92 in - West 6.9 mph - N/A   Clear
10:00 PM 80.6 °F 83.9 °F 69.8 °F 70% 29.95 in - West 6.9 mph - N/A   Clear
11:00 PM 78.8 °F - 69.8 °F 74% 29.98 in - Variable 2.3 mph - N/A   Clear